Location: Cremona
(45.1170°N, 10.0330°E)
Time: 06:31:32
(UTC+02:00)

ISS - Pass Details

Date: 27 January 2019
Orbit: 411 x 421 km, 51.6° (Epoch: 19 October)

Event Time Altitude Azimuth Distance (km) Brightness Sun altitude
Rises 18:19:03 0° 256° (WSW) 2,406 2.4 -10.6°
Reaches altitude 10° 18:21:13 10° 262° (W) 1,544 0.7 -11.0°
Maximum altitude 18:24:35 48° 338° (NNW) 584 -3.0 -11.5°
Enters shadow 18:27:03 17° 49° (NE) 1,196 -2.0 -12.0°
